Regional Weather Roundup
Issued by NWS Grand Forks, ND

Home | Current Version | Previous Version | Text Only | Print | Product List | Glossary On
Versions: 1 2 3 4 5 6 7 8 9 10 11 12 13 14 15 16 17 18 19 20 21 22 23 24 25 26 27 28 29 30 31 32 33 34 35 36 37 38 39 40 41 42 43 44 45 46 47 48 49 50
000
ASUS43 KFGF 300531
RWRFGF
PRAIRIE TO PINES  WEATHER ROUNDUP
NATIONAL WEATHER SERVICE EASTERN NORTH DAKOTA/GRAND FORKS ND
1200 AM CDT WED JUL 30 2014

 **SATELLITE DATA USED TO AUGMENT SKY COVER AT AUTOMATED STATIONS**
 *****  WEATHER ACROSS EASTERN NORTH DAKOTA  *****

CITY           SKY/WX    TMP DP  RH WIND       PRES   REMARKS
GRAND FORKS    CLEAR     58  55  90 W5        30.10S
GRAND FRKS AFB CLEAR     58  58  99 NW2       30.12R
GRAND FRKS NWS   N/A     61 N/A N/A NW2         N/A
DEVILS LAKE    CLEAR     61  54  77 CALM      30.13S
FARGO          CLEAR     60  54  80 CALM      30.11S
WAHPETON ARPT  CLEAR     57  52  82 CALM      30.12S
$$

 ***** WEATHER ACROSS CENTRAL AND WESTERN NORTH DAKOTA  *****

CITY           SKY/WX    TMP DP  RH WIND       PRES   REMARKS
BISMARCK       CLEAR     65  58  78 NE6       30.16S
MINOT          CLEAR     62  59  90 CALM      30.15S
JAMESTOWN      CLEAR     60  55  83 CALM      30.14S
MINOT AFB      CLEAR     60  60  99 SW2       30.15S
GARRISON         N/A     60  58  92 CALM      30.16S
WILLISTON      CLEAR     68  59  73 N6        30.17S
DICKINSON      CLEAR     61  56  83 E6        30.17S
HETTINGER      CLEAR     62  53  72 CALM      30.17S
$$

 *****  OTHER AIRPORT OBSERVATIONS IN OUR AREA  *****

CITY           SKY/WX    TMP DP  RH WIND       PRES   REMARKS
WALHALLA         N/A     55  55 100 CALM        N/A
GRAFTON AIRPOR FAIR      59  59 100 W5        30.11S
VALLEY CITY AR FAIR      57  55  94 CALM      30.14S
CANDO          FAIR      57  55  94 CALM      30.15S
CAVALIER APRT  FAIR      57  54  88 W5        30.11S
GWINNER        CLEAR     61  55  82 N5        30.14S
ROLLA          FAIR      54  54 100 CALM      30.17S
 ***** THE ABOVE OBSERVATIONS ARE NON NWS ARE NOT QUALITY
       CONTROLLED AND MAY MIS-REPORT RAIN FOR SNOW...
$$

  *****  WEATHER ACROSS NORTHERN MINNESOTA  *****

CITY           SKY/WX    TMP DP  RH WIND       PRES   REMARKS
FLAG ISLAND    CLEAR     68  57  68 NW10      30.05S
WARROAD        CLEAR     64  54  68 W8        30.08S
ROSEAU         CLEAR     63  55  77 W5        30.08S
HALLOCK        CLEAR     61  55  82 CALM      30.10R
THF RVR FALLS  CLEAR     61  57  88 CALM      30.10S
BAUDETTE       CLEAR     63  55  75 W6        30.07S
WASKISH        PTCLDY    66  55  68 NW6       30.07S
CROOKSTON      CLEAR     61  57  88 CALM      30.11S
$$
  *****  WEATHER ACROSS CENTRAL AND WEST MINNESOTA  *****

CITY           SKY/WX    TMP DP  RH WIND       PRES   REMARKS
FOSSTON        CLEAR     54  48  82 CALM      30.11S
BEMIDJI        CLEAR     57  54  88 W6        30.09S
PARK RAPIDS    CLEAR     57  54  89 NW6       30.10S
ELBOW LAKE     FAIR      62  54  76 CALM      30.12S
WADENA         CLEAR     57  54  88 CALM      30.11S
DETROIT LAKES  CLEAR     63  55  77 CALM      30.13S
MOORHEAD       CLEAR     63  61  94 CALM      30.12S
FERGUS FALLS   CLEAR     61  52  72 CALM      30.12S
MORRIS MN      CLEAR     57  55  94 W3        30.11S
STAPLES        CLEAR     57  54  88 W3        30.10S
$$
  *****  WEATHER ELSEWHERE ACROSS MINNESOTA  *****

CITY           SKY/WX    TMP DP  RH WIND       PRES   REMARKS
DULUTH         PTCLDY    57  54  89 NW5       30.06R
INTRNTL FALLS  MOCLDY    54  54 100 CALM      30.06R
ELY            CLEAR     48  48 100 CALM      30.07R
CLOQUET        CLEAR     55  54  94 W5        30.06S
WHEATON        CLEAR     57  54  88 CALM      30.14R
BRAINERD       LGT RAIN  63  55  75 VRB3      30.09R
HIBBING        PTCLDY    56  52  86 CALM      30.07S
ALEXANDRIA     CLEAR     64  56  75 NW3       30.13S
SAINT CLOUD    CLEAR     62  54  74 CALM      30.08R
MINNEAPOLIS    PTCLDY    69  54  58 NW6       30.06S
$$

  *****  WEATHER ACROSS SOUTH DAKOTA  *****

CITY           SKY/WX    TMP DP  RH WIND       PRES   REMARKS
SIOUX FALLS    CLEAR     60  55  83 CALM      30.14S
BROOKINGS      NOT AVBL
WATERTOWN      CLEAR     58  51  78 CALM      30.15R
HURON          CLEAR     58  54  86 CALM      30.14R
SISSETON         N/A     57  55  93 CALM      30.12R
ABERDEEN       CLEAR     55  52  89 CALM      30.14S
MITCHELL       CLEAR     62  54  74 CALM      30.14S
PIERRE         CLEAR     62  53  72 NE6       30.14S
MOBRIDGE       MOCLDY    63  56  78 SE5       30.13S
RAPID CITY     PTCLDY    60  53  77 SW6       30.21F
$$

  *****  SOME WEATHER IN NEARBY STATES *****

CITY           SKY/WX    TMP DP  RH WIND       PRES   REMARKS
GLASGOW MT     CLEAR     68  50  52 E10       30.16S
GREAT FALLS MT MOCLDY    71  42  35 SE6       30.15S
CHEYENNE WY    LGT RAIN  57  55  93 NE9       30.33F
SCOTTSBLUFF NE LGT RAIN  65  64  97 W3        30.26F
OMAHA NE       CLEAR     65  58  78 CALM      30.13F
DES MOINES IA  CLEAR     65  56  72 W5        30.10S
DAVENPORT IA   CLEAR     59  56  89 W8        30.06S
CHICAGO IL     PTCLDY    61  55  81 NW3       30.01F
EAU CLAIRE WI  PTCLDY    59  58  96 CALM      30.04R
LA CROSSE WI   MOCLDY    64  59  83 N3        30.05F
$$

  *****  SOME NATIONAL WEATHER *****

CITY           SKY/WX    TMP DP  RH WIND       PRES   REMARKS
LA GUARDIA NY  CLOUDY    69  52  54 W5        29.98R
RALEIGH NC     PTCLDY    68  60  75 SE3       30.00S
ATLANTA GA     CLEAR     67  52  58 N10       30.03F
NEW ORLEANS LA MOCLDY    82  66  58 NE17      30.04S
OKLAHOMA CITY  LGT RAIN  73  65  75 SW3       30.10R
ALBUQUERQUE NM CLOUDY    69  60  73 SE13      30.22F
SALT LAKE CITY CLOUDY    70  62  76 CALM      30.16R
LOS ANGELES CA MOCLDY    70  63  78 CALM      29.97S
BOISE ID       MOCLDY    81  54  39 SE15G23   30.11R
SEATTLE WA     CLEAR     74  50  42 NE8       30.10R
$$

*** WEATHER ACROSS MANITOBA...SASKATCHEWAN AND ONTARIO ***
                ***ONTARIO***

CITY           SKY/WX    TMP DP  RH WIND       PRES   REMARKS
GERALDTON      PTCLDY    54  50  87 CALM      30.01S
THUNDER BAY    CLEAR     50  48  93 CALM      30.05R
SIOUX LOOKOUT  CLEAR     48  46  93 CALM      30.04F
TORONTO        PTCLDY    59  55  88 SW3       29.94S
BIG TROUT LK   MOCLDY    59  48  67 N6        30.00S
PICKLE LAKE    NOT AVBL
DRYDEN         CLEAR     61  57  88 W2        30.05S
KENORA         MOCLDY    66  57  72 NW3       30.06S
$$
                *** MANITOBA***

CITY           SKY/WX    TMP DP  RH WIND       PRES   REMARKS
BRANDON        CLEAR     61  55  82 E2        30.14S
DAUPHIN        CLEAR     59  55  88 W5        30.11S
ISLAND LAKE    PTCLDY    57  54  88 NE3       30.06S
PILOT MOUND      N/A     55  54  94 S1          N/A
THE PAS        CLEAR     72  59  64 W3        30.06S
THOMPSON       PTCLDY    55  55 100 CALM      30.06S
WINNIPEG       PTCLDY    57  54  88 W7        30.10S
LYNN LAKE      CLEAR     68  54  60 S5        30.07S
CHURCHILL      CLEAR     54  52  94 SE8       30.07F
GILLAM         CLEAR     52  52 100 CALM      30.05F
$$
                ***SASKATCHEWAN***

CITY           SKY/WX    TMP DP  RH WIND       PRES   REMARKS
ESTEVAN        PTCLDY    57  54  88 N5        30.18S
KINDERSLEY     PTCLDY    66  59  77 SE13      30.13S
LLOYDMINSTER   CLEAR     68  61  77 SE8       30.12S
PRINCE ALBERT  MOCLDY    63  59  88 N2        30.14S
REGINA         CLEAR     64  59  82 SE5       30.18S
YORKTON        PTCLDY    66  59  77 W7        30.16S
N. BATTLEFORD    N/A     66  61  82 SE9       30.15F
LA RONGE       PTCLDY    63  54  72 W5        30.12S
SASKATOON      CLEAR     68  61  77 E6        30.17S
SWIFT CURRENT  CLEAR     59  55  88 SE10      30.16S
$$
NOTE: THESE ARE AUTOMATED STATIONS WITH LIMITED QUALITY CONTROL
      "FAIR" INDICATES FEW OR NO CLOUDS BELOW 12,000 FEET WITH NO
      SIGNIFICANT WEATHER AND/OR OBSTRUCTIONS TO VISIBILITY.
      SKY/WX - SKY CONDITION AND SIGNIFICANT WEATHER.
      TMP - AIR TEMPERATURE.    DP   - DEWPOINT TEMPERATURE.
      RH  - RELATIVE HUMIDITY.  PRES - PRESSURE.
      HX  - HEAT INDEX.         WCI  - WIND CHILL INDEX.
$



USA.gov is the U.S. government's official web portal to all federal, state and local government web resources and services.